[[{"header":{"parameterUnit":"m.s-1","parameterCategory":1,"la1":30.2991,"la2":30.254,"lo1":-89.0895,"lo2":-89.0444,"dy":0.0017,"dx":0.0017,"nx":28,"ny":28,"refTime":"2023-10-03T09:00:00:Z","depth":0,"parameterNumber":2,"parameterNumberName":"U-component_of_WINDS"},"data":[0,0,0,0,0,0,0,0,0,0,0,0,0,0,0,0,0,0,0,0,0,0,0,0,0,0,0,0,0,0,0,0,0,0,0,0,0,0,0,0,0,0,0,0,0,0,0,0,0,0,0,0,0,0,0,0,0,0,-5.3476,-5.3476,0,-5.3469,-5.3469,-5.3469,-5.3361,-5.3358,-5.3355,-5.3353,-5.3345,-5.3347,-5.3349,0,0,0,0,0,0,0,0,0,0,0,0,0,-5.3398,-5.34,-5.3476,-5.3476,-5.3476,-5.3469,-5.3469,-5.3469,-5.3361,-5.3358,-5.3355,-5.3352,-5.3344,-5.3347,-5.3349,0,0,0,0,0,0,0,0,0,0,0,0,0,-5.3415,-5.34,-5.3476,-5.3421,-5.3416,-5.3469,-5.3469,-5.3469,-5.3362,-5.3358,-5.3354,-5.335,-5.3343,-5.3346,-5.335,-5.3454,0,0,-5.3361,-5.3362,0,0,0,0,0,0,0,0,-5.3414,-5.3418,-5.343,-5.3425,-5.342,-5.3412,-5.3438,-5.3464,-5.3363,-5.3383,-5.3353,-5.3348,-5.337,-5.3371,-5.3379,-5.3453,-5.3453,-5.3361,-5.3363,-5.3365,-5.3365,0,0,0,0,0,0,0,-5.3413,-5.3418,-5.3473,-5.343,-5.3424,-5.3398,-5.3396,-5.3442,-5.34,-5.3381,-5.3373,-5.3374,-5.3367,-5.3376,-5.3378,-5.3453,-5.3361,-5.3364,-5.3366,-5.3367,-5.3613,-5.3618,0,0,0,0,0,0,-5.342,-5.3418,-5.3473,-5.3473,-5.3407,-5.3402,-5.34,-5.3418,-5.3399,-5.3392,-5.3377,-5.3369,-5.3372,-5.3374,-5.3377,-5.3497,-5.3364,-5.3368,-5.337,-5.3609,-5.3614,-5.3619,0,0,0,0,0,0,-5.3418,-5.3426,-5.3473,-5.3443,-5.3447,-5.3408,-5.3429,-5.342,-5.3429,-5.3396,-5.3388,-5.3394,-5.3369,-5.3372,-5.3436,-5.3495,-5.3369,-5.3373,-5.3604,-5.3611,-5.3617,-5.3739,0,0,0,0,0,0,-5.3416,-5.3426,-5.3464,-5.3445,-5.3449,-5.3532,-5.3433,-5.3423,-5.3436,-5.3424,-5.341,-5.3403,-5.3366,-5.3431,-5.3439,-5.3498,-5.3375,-5.3598,-5.3607,-5.3615,-5.3729,-5.3748,-5.3765,0,0,0,0,0,-5.3414,-5.3498,-5.3467,-5.3474,-5.3497,-5.3536,-5.3538,-5.3493,-5.3441,-5.3479,-5.3459,-5.3404,-5.3489,-5.3439,-5.3447,-5.3507,-5.3594,-5.3604,-5.3614,-5.3721,-5.3745,-5.3765,0,0,0,0,0,0,-5.3524,-5.3494,-5.3459,-5.3539,-5.3541,-5.3517,-5.3564,-5.352,-5.3536,-5.3525,-5.3469,-5.3466,-5.3539,-5.353,-5.3475,-5.3608,-5.3532,-5.3544,-5.361,-5.3633,-5.365,-5.365,-5.3378,0,0,0,0,0,-5.3558,-5.3593,-5.3565,-5.3638,-5.3641,-5.3604,-5.3619,-5.3585,-5.3584,-5.3583,-5.3567,-5.3568,-5.3595,-5.3614,-5.3637,-5.3729,-5.3724,-5.3775,-5.3793,-5.3808,-5.3818,-5.3866,-5.3889,-5.3652,-5.3652,-5.3652,0,0,-5.3628,-5.3616,-5.3641,-5.366,-5.3657,-5.3694,-5.3604,-5.3647,-5.3674,-5.359,-5.3648,-5.3638,-5.3635,-5.3714,-5.3747,-5.3708,-5.3883,-5.3821,-5.3833,-5.3835,-5.3879,-5.3901,-5.3921,-5.3659,-5.3658,-5.3656,0,0,-5.3773,-5.3768,-5.3829,-5.3829,-5.3827,-5.3801,-5.3817,-5.3801,-5.379,-5.3849,-5.3787,-5.3819,-5.3866,-5.3867,-5.3874,-5.4025,-5.3975,-5.4034,-5.4128,-5.4176,-5.4194,-5.4211,-5.4263,-5.4283,-5.4045,-5.4046,-5.4046,0,-5.3859,-5.3912,-5.3866,-5.3913,-5.3924,-5.3852,-5.3913,-5.3916,-5.3921,-5.393,-5.3887,-5.3946,-5.394,-5.4018,-5.4055,-5.4063,-5.4079,-5.4034,-5.4196,-5.4211,-5.4226,-5.4276,-5.4296,-5.4053,-5.4052,-5.4051,-5.405,0,-5.4019,-5.4057,-5.4107,-5.4115,-5.4132,-5.4186,-5.4148,-5.4171,-5.4137,-5.4117,-5.4178,-5.4169,-5.4189,-5.4206,-5.4172,-5.428,-5.4255,-5.4206,-5.4127,-5.4256,-5.4302,-5.4321,-5.4063,-5.406,-5.4058,-5.4056,0,0,-5.4228,-5.4213,-5.4232,-5.4235,-5.423,-5.4258,-5.4311,-5.4331,-5.4352,-5.436,-5.4401,-5.4445,-5.4399,-5.4407,-5.4374,-5.4417,-5.4536,-5.4361,-5.436,-5.4393,-5.4654,-5.469,-5.4713,-5.4505,-5.4508,-5.4511,-5.4653,0,-5.4368,-5.4455,-5.4417,-5.4508,-5.4543,-5.4478,-5.4523,-5.4525,-5.4509,-5.4537,-5.4519,-5.455,-5.4488,-5.4492,-5.4532,-5.4513,-5.4588,-5.4503,-5.4542,-5.4544,-5.4542,-5.4737,-5.4774,-5.4909,-5.4671,-5.4674,-5.4676,0,-5.454,-5.4556,-5.4652,-5.4642,-5.4655,-5.4697,-5.4713,-5.4741,-5.4743,-5.4728,-5.4739,-5.4697,-5.4748,-5.4674,-5.4744,-5.4687,-5.4702,-5.4696,-5.47,-5.4699,-5.4616,-5.474,-5.4951,-5.497,-5.4704,-5.4702,-5.47,0,-5.4682,-5.4728,-5.4791,-5.4796,-5.4786,-5.4817,-5.4815,-5.4812,-5.4828,-5.4844,-5.4853,-5.4875,-5.4886,-5.4904,-5.4869,-5.4818,-5.4943,-5.4866,-5.4932,-5.4933,-5.4958,-5.4956,-5.5172,-5.4972,-5.4972,-5.4972,-5.4971,0,-5.484,-5.49,-5.4855,-5.4893,-5.496,-5.4917,-5.4984,-5.4974,-5.4974,-5.5009,-5.4955,-5.499,-5.4943,-5.4974,-5.4947,-5.5009,-5.5015,-5.5004,-5.4996,-5.5007,-5.5009,-5.5014,-5.5002,-5.4977,-5.4976,-5.4975,-5.4974,0,-5.5007,-5.498,-5.5044,-5.5031,-5.5029,-5.5079,-5.5067,-5.5103,-5.5085,-5.5131,-5.5139,-5.5111,-5.5144,-5.5112,-5.5144,-5.5126,-5.5208,-5.5188,-5.5208,-5.5201,-5.5268,-5.5261,-5.5493,-5.552,-5.5305,-5.5307,-5.5309,0,-5.5108,-5.5153,-5.5146,-5.5167,-5.5168,-5.5202,-5.5218,-5.5179,-5.5198,-5.5206,-5.524,-5.527,-5.529,-5.5348,-5.5329,-5.5354,-5.5332,-5.5412,-5.5335,-5.5346,-5.5331,-5.5328,-5.5332,-5.5426,-5.5428,-5.5431,-5.5432,0,-5.529,-5.5275,-5.53,-5.5323,-5.5345,-5.536,-5.5371,-5.5391,-5.5351,-5.5376,-5.541,-5.5427,-5.5461,-5.549,-5.551,-5.5507,-5.5463,-5.5458,-5.5473,-5.5484,-5.5493,-5.5488,-5.5248,-5.5451,-5.5449,-5.5448,-5.5447,-5.5446,-5.5425,-5.5463,-5.5465,-5.5496,-5.5501,-5.5514,-5.5547,-5.5534,-5.5562,-5.5587,-5.5562,-5.5604,-5.5607,-5.5629,-5.5632,-5.5664,-5.563,-5.5654,-5.566,-5.5666,-5.5675,-5.5491,-5.5668,-5.5667,-5.5667,-5.5666,-5.5666,0,-5.5602,-5.5601,-5.5631,-5.5649,-5.5675,-5.5634,-5.5646,-5.5669,-5.5707,-5.5714,-5.5737,-5.5777,-5.5807,-5.5793,-5.5818,-5.5847,-5.5828,-5.5855,-5.5851,-5.5851,-5.5704,-5.5687,-5.587,-5.587,-5.587,-5.587,-5.587,-5.587,-5.5697,-5.5759,-5.5745,-5.581,-5.5808,-5.5849,-5.5859,-5.5871,-5.5876,-5.5924,-5.5949,-5.594,-5.5939,-5.5965,-5.5991,-5.5986,-5.5997,-5.6031,-5.6019,-5.5881,-5.5861,-5.5842,-5.5825,-5.6035,-5.6035,-5.6163,-5.6164,-5.6165]},{"header":{"parameterUnit":"m.s-1","parameterCategory":1,"la1":30.2991,"la2":30.254,"lo1":-89.0895,"lo2":-89.0444,"dy":0.0017,"dx":0.0017,"nx":28,"ny":28,"refTime":"2023-10-03T09:00:00:Z","depth":0,"parameterNumber":3,"parameterNumberName":"V-component_of_WINDS"},"data":[0,0,0,0,0,0,0,0,0,0,0,0,0,0,0,0,0,0,0,0,0,0,0,0,0,0,0,0,0,0,0,0,0,0,0,0,0,0,0,0,0,0,0,0,0,0,0,0,0,0,0,0,0,0,0,0,0,0,2.0463,2.0463,0,2.0461,2.0461,2.0461,2.0519,2.052,2.0522,2.0523,2.0514,2.0512,2.0511,0,0,0,0,0,0,0,0,0,0,0,0,0,2.0511,2.051,2.0463,2.0463,2.0463,2.0461,2.0461,2.0461,2.0519,2.052,2.0522,2.0524,2.0514,2.0512,2.051,0,0,0,0,0,0,0,0,0,0,0,0,0,2.0498,2.051,2.0463,2.0492,2.0494,2.0461,2.0461,2.0461,2.0518,2.052,2.0523,2.0525,2.0515,2.0513,2.051,2.0447,0,0,2.0502,2.0501,0,0,0,0,0,0,0,0,2.0498,2.0496,2.0487,2.049,2.0492,2.0493,2.0475,2.0456,2.0518,2.0509,2.0523,2.0526,2.0504,2.0503,2.0497,2.0447,2.0447,2.0502,2.0501,2.0499,2.0499,0,0,0,0,0,0,0,2.0499,2.0496,2.0462,2.0487,2.049,2.0503,2.0504,2.0472,2.0493,2.051,2.0514,2.0513,2.0506,2.05,2.0497,2.0446,2.0502,2.05,2.0498,2.0497,2.0347,2.0344,0,0,0,0,0,0,2.0497,2.0497,2.0462,2.0462,2.0501,2.05,2.0501,2.049,2.0494,2.0497,2.0511,2.0516,2.0503,2.05,2.0497,2.0425,2.0499,2.0497,2.0496,2.0349,2.0346,2.0344,0,0,0,0,0,0,2.0498,2.0493,2.0462,2.0481,2.0478,2.0497,2.0484,2.0489,2.0482,2.0495,2.0499,2.0501,2.0505,2.0501,2.046,2.0426,2.0496,2.0494,2.0352,2.0348,2.0345,2.0279,0,0,0,0,0,0,2.0499,2.0493,2.0471,2.048,2.0476,2.0426,2.0482,2.0487,2.0479,2.0485,2.0486,2.0489,2.0506,2.0464,2.0458,2.0423,2.0492,2.0355,2.035,2.0346,2.0285,2.0274,2.0265,0,0,0,0,0,2.0501,2.045,2.0469,2.0465,2.0449,2.0424,2.0422,2.0445,2.0476,2.0452,2.0461,2.0489,2.0431,2.0459,2.0453,2.0417,2.0357,2.0352,2.0346,2.0289,2.0276,2.0265,0,0,0,0,0,0,2.0433,2.0452,2.0473,2.0424,2.0423,2.0434,2.0405,2.0431,2.0418,2.0424,2.0452,2.0451,2.0406,2.0408,2.0439,2.0358,2.0399,2.0392,2.0358,2.0346,2.0336,2.0335,2.0489,0,0,0,0,0,2.0413,2.0394,2.041,2.0366,2.0364,2.0385,2.0375,2.0394,2.0392,2.0391,2.0396,2.0392,2.0373,2.036,2.0343,2.0286,2.0287,2.0259,2.0249,2.024,2.0233,2.0204,2.0192,2.0325,2.0325,2.0326,0,0,2.037,2.0378,2.0363,2.0352,2.0353,2.0331,2.0384,2.0357,2.0341,2.0386,2.0349,2.0353,2.035,2.0302,2.0281,2.0301,2.0197,2.0233,2.0227,2.0224,2.0197,2.0185,2.0173,2.0322,2.0322,2.0323,0,0,2.0281,2.0285,2.0249,2.025,2.0253,2.0267,2.0259,2.0267,2.0273,2.0237,2.0271,2.0251,2.0218,2.0215,2.0209,2.0123,2.0148,2.0117,2.0063,2.0035,2.0024,2.0015,1.9984,1.9973,2.011,2.011,2.011,0,2.0226,2.0196,2.0227,2.02,2.0194,2.0238,2.0201,2.02,2.0195,2.0189,2.0214,2.0175,2.0176,2.0128,2.0108,2.0102,2.0092,2.0115,2.0024,2.0015,2.0007,1.9978,1.9966,2.0106,2.0106,2.0107,2.0107,0,2.013,2.0109,2.0079,2.0077,2.0069,2.0036,2.0061,2.0048,2.0069,2.008,2.0044,2.0047,2.0033,2.0023,2.0041,1.9978,1.9992,2.002,2.0062,1.999,1.9963,1.9952,2.01,2.0102,2.0103,2.0104,0,0,1.9994,2.0013,2.0001,2.0002,2.001,1.9993,1.9963,1.9952,1.9941,1.9937,1.9912,1.9885,1.9913,1.9906,1.9924,1.99,1.9832,1.9931,1.9931,1.9912,1.9763,1.9741,1.9727,1.985,1.9848,1.9846,1.9763,0,1.9907,1.986,1.9888,1.9836,1.9817,1.986,1.9834,1.9835,1.9846,1.9831,1.9843,1.9823,1.9861,1.9857,1.9835,1.9845,1.9802,1.9851,1.9825,1.9824,1.9823,1.9713,1.9689,1.961,1.9753,1.9751,1.975,0,1.9799,1.9795,1.9741,1.9755,1.9748,1.9724,1.9718,1.9703,1.9705,1.9715,1.971,1.9736,1.9707,1.9751,1.9711,1.9744,1.9735,1.9739,1.9736,1.9733,1.9781,1.9706,1.9586,1.9574,1.9733,1.9735,1.9736,0,1.9705,1.9686,1.9652,1.9651,1.9666,1.9649,1.9653,1.9659,1.9651,1.9645,1.964,1.963,1.9624,1.9614,1.9636,1.9666,1.9594,1.9639,1.96,1.9599,1.958,1.9581,1.9456,1.9577,1.9577,1.9577,1.9578,0,1.9605,1.957,1.961,1.9589,1.9552,1.9585,1.9546,1.9556,1.9561,1.9541,1.9578,1.9558,1.959,1.9573,1.959,1.9555,1.9551,1.9558,1.9562,1.9554,1.9553,1.9547,1.9552,1.9574,1.9575,1.9576,1.9576,0,1.9492,1.9518,1.9484,1.9503,1.9507,1.9478,1.9493,1.9474,1.949,1.9465,1.9461,1.9484,1.9467,1.9489,1.9472,1.9484,1.9436,1.9449,1.9436,1.9439,1.9398,1.9402,1.9264,1.9247,1.938,1.9379,1.9378,0,1.9426,1.9401,1.9418,1.9409,1.9413,1.9398,1.9392,1.9424,1.9415,1.9418,1.9398,1.9385,1.9376,1.9347,1.9361,1.9349,1.9362,1.9315,1.936,1.9353,1.936,1.9361,1.9359,1.9304,1.9303,1.9301,1.93,0,1.9305,1.932,1.931,1.9306,1.9299,1.9296,1.9296,1.9286,1.932,1.9308,1.9293,1.9286,1.9273,1.9258,1.9252,1.9255,1.9282,1.9287,1.9277,1.9267,1.926,1.9263,1.9409,1.9289,1.929,1.9291,1.9291,1.9292,1.9213,1.9193,1.9204,1.9192,1.9197,1.9197,1.918,1.9195,1.9184,1.9177,1.9196,1.9176,1.9181,1.9175,1.9176,1.9161,1.9181,1.9166,1.9163,1.9158,1.9152,1.9264,1.9159,1.916,1.916,1.916,1.9161,0,1.9093,1.9103,1.9093,1.9094,1.9085,1.9116,1.9118,1.9108,1.9091,1.9095,1.9087,1.907,1.9057,1.9072,1.9063,1.9047,1.9059,1.9043,1.9044,1.9044,1.9135,1.9144,1.9033,1.9033,1.9033,1.9033,1.9033,1.9033,1.903,1.8999,1.9016,1.8988,1.8997,1.898,1.8979,1.8979,1.8982,1.8963,1.8954,1.8965,1.8973,1.8965,1.8955,1.896,1.8954,1.8933,1.8941,1.9025,1.9038,1.9049,1.9058,1.8931,1.8931,1.8852,1.8852,1.8851]}]]